Location: Perryvale
(54.4667°N, 113.3833°W)
Time: 00:01:54
(UTC+00:00)

Vanguard 1 - Pass Details

Date: 24 May 2024
Orbit: 652 x 3825 km, 34.2° (Epoch: 13 June)

Event Time Altitude Azimuth Distance (km) Brightness Sun altitude
Rises 04:01:49 0° 223° (SW) 4,488 13.5 -2.5°
Reaches altitude 10° 04:04:54 10° 211° (SSW) 3,883 13.0 -2.8°
Maximum altitude 04:13:33 28° 158° (SSE) 3,611 12.5 -3.7°
Drops below altitude 10° 04:26:51 10° 109° (ESE) 6,095 13.6 -5.1°
Sets 04:33:24 0° 100° (E) 7,535 14.1 -5.7°
